View from above orbital plane
|
View from above satellite
|
Ground track
|
The orbit data is extracted from the following two-line orbital elements,
1 14781U 84021B 19343.76645167 +.00000098 +00000-0 +18077-4 0 9992
2 14781 097.5996 000.1415 0009944 105.6594 254.5718 14.83126307903565
Epoch (UTC): | 09 December 2019 18:23:41 |
Eccentricity: | 0.0009944 |
inclination: | 97.5996° |
perigee height: | 612 km |
apogee height: | 626 km |
right ascension of ascending node: | 0.1415° |
argument of perigee: | 105.6594° |
revolutions per day: | 14.83126307 |
mean anomaly at epoch: | 254.5718° |
orbit number at epoch: | 90356 |
The dashed part of the orbit path shows where the satellite is in the earth's shadow,
|
|